Tracking 30995 objects as of 7-Jul-2025
HD Live streaming from Space Station
objects crossing your sky now

NOAA 16 DEB

Track NOAA 16 DEB now!
10-day predictions


NORAD ID: 41365
Int'l Code: 2000-055JJ
Perigee: 710.3 km
Apogee: 756.4 km
Inclination: 98.9 °
Period: 99.3 minutes
Semi major axis: 7104 km
RCS: Unknown
Launch date: September 21, 2000
Source: United States (US)
Launch site: AIR FORCE WESTERN TEST RANGE (AFWTR)

Note: This is SATELLITE DEBRIS
Your satellite tracking list
SKYSAT C12
Track 1 satellite(s)




NASA's NSSDC Master Catalog

Two Line Element Set (TLE):
1 41365U 00055JJ  25184.37893658  .00006605  00000-0  17116-2 0  9993
2 41365  98.9214 345.4636 0032423  89.3273 271.1634 14.49837080488908
Source of the keplerian elements: AFSPC